Flag for U.S.A. Weather past 2 weeks in Newport News, Virginia, U.S.A.

Now
69 °F

Rain. Fog.


Feels Like: 69 °F
Forecast: 72 / 79 °F
Wind: 6 mph from Northwest

Location: Newport News / Williamsburg International Airport

Current Time: Aug 1, 2014 at 8:30:27 PM

Latest Report: Aug 1, 2014 at 7:54 PM


Visibility: 1 mi

Pressure: 30.14 "Hg

Humidity: 87%

Dew point: 65 °F

Location of Newport NewsLocation

Historic Weather in Newport News — Graph

°F

Newport News temperature yesterday

Maximum temperature yesterday: 86 °F (at 2:54 PM)
Minimum temperature yesterday: 65 °F (at 4:54 AM)
Average temperature yesterday: 78 °F

Past Weeks' High & Low Weather Summary

 TemperatureHumidityPressure
High94 °F (Jul 23, 2:54 PM)88% (Jul 22, 2:54 AM)30.22 "Hg (Jul 22, 2:54 AM)
Low64 °F (Jul 18, 4:54 AM)36% (Jul 28, 6:54 PM)29.62 "Hg (Jul 28, 4:54 AM)
Average78 °F67%30.02 "Hg
* Reported Jul 17 7:54 PM — Aug 1 7:02 PM, Newport News, Weather by CustomWeather, © 2014

Note: Actual official high and low records may vary slightly from our data, if they occured in-between our weather recording intervals... More about our weather records

Advertising

Newport News weather history for previous 24 hours

 ConditionsComfort  
Time TempWeatherWind HumidityBarometerVisibility
7:02 PM
Aug 1
72 °FHeavy rain. Cloudy.9 mph78%30.12 "Hg2 mi
6:54 PM72 °FRain. More clouds than sun.7 mph78%30.11 "Hg4 mi
5:54 PM75 °FLight rain. Overcast.10 mph66%30.11 "Hg9 mi
4:54 PM77 °FPartly sunny.8 mph64%30.12 "Hg10 mi
3:54 PM77 °FMostly cloudy.8 mph74%30.15 "Hg10 mi
2:54 PM76 °FLight rain. Mostly cloudy.7 mph72%30.17 "Hg10 mi
1:54 PM78 °FLight rain. Broken clouds.8 mph74%30.17 "Hg8 mi
12:54 PM80 °FPassing clouds.9 mph67%30.17 "Hg10 mi
11:54 AM81 °FPassing clouds.7 mph67%30.18 "Hg10 mi
10:54 AM80 °FPartly sunny.5 mph74%30.17 "Hg9 mi
9:54 AM78 °FScattered clouds.5 mph79%30.17 "Hg7 mi
8:54 AM77 °FLight rain. Passing clouds.No wind79%30.16 "Hg8 mi
7:54 AM74 °FLight rain. Passing clouds.No wind82%30.16 "Hg6 mi
6:54 AM73 °FOvercast.No wind81%30.16 "Hg6 mi
5:54 AM73 °FPassing clouds.No wind81%30.14 "Hg9 mi
4:54 AM72 °FClear.3 mph84%30.13 "Hg7 mi
3:54 AM73 °FClear.No wind81%30.15 "Hg8 mi
2:54 AM75 °FLight rain. Passing clouds.No wind74%30.16 "Hg10 mi
1:54 AM78 °FPartly cloudy.7 mph64%30.17 "Hg10 mi
12:54 AM78 °FClear.7 mph64%30.17 "Hg10 mi
11:54 PM
Jul 31
78 °FClear.5 mph64%30.16 "Hg10 mi
10:54 PM79 °FClear.6 mph60%30.15 "Hg10 mi
9:54 PM80 °FClear.9 mph58%30.14 "Hg10 mi
8:54 PM78 °FSunny.No wind66%30.14 "Hg10 mi
Weather by CustomWeather, © 2014

See weather overviewHow to use our weather pages